Location: Newark
(7.0858°N, 171.3717°E)
Time: 06:42:26
(UTC+00:00)

Transit 2A Rocket - All Passes

Search period start: 27 November 2020 00:00
Search period end: 07 December 2020 00:00
Orbit: 588 x 914 km, 66.7° (Epoch: 26 November)

Date Brightness Start Highest point End Pass type
(mag) Time Alt. Az. Time Alt. Az. Time Alt. Az.
27 Nov - 00:25:01 10° NNE 00:28:07 19° ENE 00:31:09 10° ESE daylight
27 Nov - 02:07:39 10° WNW 02:10:21 16° WSW 02:13:03 10° SSW daylight
27 Nov - 12:56:04 10° S 13:01:44 42° ESE 13:07:23 10° NE night (unlit)
27 Nov - 14:40:18 10° WSW 14:44:12 18° WNW 14:48:06 10° NNW night (unlit)
28 Nov - 01:23:51 10° NW 01:27:54 38° WSW 01:31:52 10° S daylight
28 Nov - 12:14:45 10° SSE 12:19:13 22° ESE 12:23:42 10° ENE night (unlit)
28 Nov - 13:56:10 10° SW 14:01:36 34° WNW 14:06:59 10° N night (unlit)
29 Nov - 00:41:03 10° NNW 00:45:24 82° ENE 00:49:40 10° SSE daylight
29 Nov - 13:13:00 10° SSW 13:19:01 66° WNW 13:25:01 10° NNE night (unlit)
29 Nov - 23:58:58 10° N 00:02:52 32° ENE 00:06:41 10° SE daylight
30 Nov - 12:30:28 10° S 12:36:29 65° ESE 12:42:28 10° NNE night (unlit)
30 Nov - 14:17:42 10° W 14:19:04 11° WNW 14:20:25 10° NW night (unlit)
30 Nov - 23:17:59 10° NE 23:20:16 14° ENE 23:22:30 10° E daylight
01 Dec - 00:59:13 10° WNW 01:02:33 22° WSW 01:05:52 10° SSW daylight
01 Dec - 11:48:36 10° S 11:53:58 33° ESE 11:59:19 10° NE night (unlit)
01 Dec - 13:31:48 10° WSW 13:36:24 22° WNW 13:40:57 10° NNW night (unlit)
02 Dec - 00:15:52 10° NNW 00:20:05 54° WSW 00:24:14 10° S daylight
02 Dec - 11:07:43 10° SSE 11:11:28 17° ESE 11:15:12 10° ENE night (unlit)
02 Dec - 12:48:05 10° SW 12:53:49 43° WNW 12:59:28 10° N night (unlit)
02 Dec - 23:33:19 10° N 23:37:35 58° ENE 23:41:46 10° SSE daylight
03 Dec - 12:05:09 10° SSW 12:11:15 83° WNW 12:17:17 10° NNE night (unlit)
03 Dec - 22:51:31 10° NNE 22:55:01 24° ENE 22:58:28 10° ESE daylight
04 Dec - 00:35:23 10° W 00:37:13 12° WSW 00:39:03 10° SW daylight
04 Dec - 11:22:51 10° S 11:28:43 51° ESE 11:34:32 10° NE night (unlit)
04 Dec - 13:08:10 10° W 13:11:14 14° WNW 13:14:16 10° NW night (unlit)
04 Dec - 22:12:11 10° ENE 22:12:23 10° ENE 22:12:36 10° ENE daylight
04 Dec - 23:50:59 10° NW 23:54:44 30° WSW 23:58:28 10° S daylight
05 Dec - 10:41:14 10° SSE 10:46:13 26° ESE 10:51:08 10° NE night (unlit)
05 Dec - 12:23:29 10° SW 12:28:36 28° WNW 12:33:38 10° NNW night (unlit)
05 Dec - 23:07:57 10° NNW 23:12:15 76° WSW 23:16:31 10° SSE daylight
06 Dec - 10:01:03 10° SE 10:03:42 13° ESE 10:06:19 10° E night (unlit)
06 Dec - 11:40:05 10° SW 11:46:01 54° WNW 11:51:52 10° N night (unlit)
06 Dec - 22:25:39 10° N 22:29:44 42° ENE 22:33:46 10° SE daylight
